Location: Warwick
(41.7000°N, 71.4170°W)
Time: 08:54:04
(UTC-04:00)

BREEZE-M DEB (TANK) - Visible Passes

Search period start: 03 September 2015 00:00
Search period end: 13 September 2015 00:00
Orbit: 317 x 15926 km, 49.5° (Epoch: 28 August)

Date Brightness Start Highest point End Pass type
(mag) Time Alt. Az. Time Alt. Az. Time Alt. Az.
03 Sep 6.1 02:14:52 40° SSE 02:18:06 42° SE 02:26:38 10° ENE visible
04 Sep 5.9 02:23:22 42° S 02:26:57 46° SE 02:35:02 10° ENE visible
05 Sep 5.7 02:31:49 45° S 02:35:42 51° SE 02:43:22 10° ENE visible
06 Sep 5.5 02:40:13 47° S 02:44:23 55° SSE 02:51:39 10° ENE visible
07 Sep 5.3 02:48:34 48° SSW 02:52:57 60° SSE 02:59:53 10° ENE visible
08 Sep 5.1 02:56:53 49° SSW 03:01:29 66° SSE 03:08:04 10° ENE visible
09 Sep 5.0 03:05:09 49° SSW 03:09:55 72° SSE 03:16:13 10° ENE visible
10 Sep 4.8 03:13:22 49° SW 03:18:18 78° SSE 03:24:19 10° ENE visible
11 Sep 4.7 03:21:34 47° SW 03:26:38 84° SSE 03:32:23 10° ENE visible
12 Sep 4.6 03:29:43 46° WSW 03:34:55 89° NNW 03:40:25 10° ENE visible
12 Sep 7.4 21:59:40 10° SSE 22:48:11 - E 22:00:36 10° SSE visible
